Business Course(s)

No Course Title No of Days Start Date End Date Fee Content Register
1 EMPLOYEE RELATIONS 3 Days 07/09/2020 09/09/2020 $ 500, Ksh 40,000 View
2 ASSET MANAGEMENT 5 Days 07/09/2020 11/09/2020 $ 1,000, Ksh 80,000 View
3 GENDER DIVERSITY AT THE WORK PLACE 3 Days 07/09/2020 09/09/2020 $ 500, Ksh 40,000 View
4 AUDITING OF DONOR FUNDED PROJECTS 5 Days 07/09/2020 11/09/2020 $ 1,000, Ksh 80,000 View
5 HUMAN RESOURCES DEVELOPMENT AND PERSONNEL MANAGEME 5 Days 07/09/2020 11/09/2020 $ 1,000, Ksh 80,000 View
6 CASH FLOW FORECASTING AND LIQUIDITY RISK MANAGEMEN 5 Days 07/09/2020 11/09/2020 $ 1,000, Ksh 80,000 View
7 PROJECT FINANCIAL ANALYSIS AND MANAGEMENT 5 Days 07/09/2020 11/09/2020 $ 1,000, Ksh 80,000 View
8 CONCEPTS OF CORPORATE GOVERNANCE, BUSINESS ETHICS 5 Days 07/09/2020 11/09/2020 $ 1,000, Ksh 80,000 View
9 PROCUREMENT AND SUPPLY CHAIN MANAGEMENT 5 Days 07/09/2020 11/09/2020 $ 1,000, Ksh 80,000 View
10 RECORDS MANAGEMENT 10 Days 07/09/2020 18/09/2020 $ 2,000, Ksh 160,000 View
11 ADVANCED PURCHASING AND COST SAVING TECHNIQUES 5 Days 07/09/2020 11/09/2020 $ 1,000, Ksh 80,000 View
12 SHIPPING AND LOGISTICS 5 Days 07/09/2020 11/09/2020 $ 1,000, Ksh 80,000 View
13 CONTRACT MANAGEMENT IN OIL & GAS 5 Days 07/09/2020 11/09/2020 $ 1,000, Ksh 80,000 View
14 BEST PRACTICES IN MANAGING INVENTORY & STOCK CONTR 5 Days 07/09/2020 11/09/2020 $ 1,000, Ksh 80,000 View
15 EFFECTIVE WAREHOUSE & STORES MANAGEMENT 5 Days 07/09/2020 11/09/2020 $ 1,000, Ksh 80,000 View
16 PROFESSIONAL SKILLS ENHANCEMENT FOR ADMINISTRATORS 10 Days 07/09/2020 16/09/2020 $ 2,000, Ksh 160,000 View
17 ESSENTIAL INTERVIEWING SKILLS 3 Days 07/09/2020 09/09/2020 $ 500, Ksh 40,000 View
18 MICROSOFT EXCEL FOR HUMAN RESOURSE PROFESSIONAL 3 Days 07/09/2020 09/09/2020 $ 500, Ksh 40,000 View
19 LEADING FOR ORGANIZATIONAL IMPACT 5 Days 07/09/2020 11/09/2020 $ 1,000, Ksh 80,000 View
20 INTERPERSONAL SKILLS FOR THE HR PROFFESSIONAL 5 Days 07/09/2020 11/09/2020 $ 1,000, Ksh 80,000 View
21 BASIC HUMAN RESOURCE MANAGEMENT 5 Days 07/09/2020 11/09/2020 $ 1,000, Ksh 80,000 View
22 INTERNATIONAL FINANCIAL REPORTING STANDARDS 5 Days 07/09/2020 11/09/2020 $ 1,000, Ksh 80,000 View
23 FINANCIAL MARKETS AND INSTITUTIONS COURSE 5 Days 07/09/2020 11/09/2020 $ 1,000, Ksh 80,000 View
24 FINANCIAL SKILLS DEVELOPMENT 5 Days 07/09/2020 11/09/2020 $ 1,000, Ksh 80,000 View
25 INTERNATIONAL PUBLIC SECTOR ACCOUNTING STANDARD 5 Days 07/09/2020 11/09/2020 $ 1,000, Ksh 80,000 View
26 EFFECTIVE DATA ANALYSIS TECHNIQUES: FOR POSITIVE B 5 Days 07/09/2020 11/09/2020 $ 1,000, Ksh 80,000 View
27 FINANCIAL MANAGEMENT USING PASTEL 5 Days 07/09/2020 11/09/2020 $ 1,000, Ksh 80,000 View
28 FORENSIC ACCOUNTING IN THE PUBLIC SECTOR 5 Days 07/09/2020 11/09/2020 $ 1,000, Ksh 80,000 View
29 CORPORATE AND EMPLOYEE BEST PRACTICES 5 Days 07/09/2020 11/09/2020 $ 1,000, Ksh 80,000 View
30 ENTERPRISE RISK MANAGEMENT 5 Days 07/09/2020 11/09/2020 $ 1,000, Ksh 80,000 View
31 COMPETENCY BASED RECRUITMENT 3 Days 07/09/2020 09/09/2020 $ 5,000, Ksh 40,000 View
32 BASICS OF FINANCIAL MODELLING USING MS EXCEL 10 Days 07/09/2020 18/09/2020 $ 2,000, Ksh 160,000 View
33 CORPORATE AND EMPLOYEE BEST PRACTICES 5 Days 07/09/2020 11/09/2020 $ 1,000, Ksh 80,000 View
34 CUSTOMER EXPERIENCE MANAGEMENT STRATEGIES 5 Days 07/09/2020 11/09/2020 $ 1,000, Ksh 80,000 View
35 PERFORMANCE AUDITING 5 Days 07/09/2020 11/09/2020 $ 1,000, Ksh 80,000 View
36 GENDER DIVERSITY AT THE WORK PLACE 3 Days 07/09/2020 09/09/2020 $ 500, Ksh 40,000 View
37 PERSPECTIVES ON COST ACCOUNTING FOR PUBLIC SECTOR 5 Days 07/09/2020 11/09/2020 $ 1,000, Ksh 80,000 View
38 CUSTOMER RELATIONSHIP MANAGEMENT (CRM) BEST PRACTI 5 Days 07/09/2020 11/09/2020 $ 1,000, Ksh 80,000 View
39 THE ART OF HUMAN RESOURCE MANAGEMENT 5 Days 07/09/2020 11/09/2020 $ 1,000, Ksh 80,000 View
40 GRANT MANAGEMENT USING SUN ACCOUNTING SYSTEM 10 Days 07/09/2020 18/09/2020 $ 2,000, Ksh 160,000 View
41 PREPARATION AND INTERPRETATION OF FINANCIAL STATEM 5 Days 07/09/2020 11/09/2020 $ 1,000, Ksh 80,000 View
42 CUSTOMER ACQUISITION & RETENTION STRATEGIES 5 Days 07/09/2020 11/09/2020 $ 1,000, Ksh 80,000 View
43 BUDGET EXECUTION AND MANAGING FISCAL SPACE 5 Days 07/09/2020 11/09/2020 $ 1,000, Ksh 80,000 View
44 CORPORATE AND EMPLOYEE BEST PRACTICES 5 Days 07/09/2020 11/09/2020 $ 1,000, Ksh 80,000 View
45 STRATEGIC VISION AND BUSINESS RISK MANAGEMENT STAT 10 Days 07/09/2020 18/09/2020 $ 2,000, Ksh 160,000 View
46 ADVANCED FINANCIAL MANAGEMENT 5 Days 07/09/2020 11/09/2020 $ 1,000, Ksh 80,000 View
47 EMPLOYEE RELATIONS 3 Days 05/10/2020 07/10/2020 $ 500, Ksh 40,000 View
48 ASSET MANAGEMENT 5 Days 05/10/2020 09/10/2020 $ 1,000, Ksh 80,000 View
49 GENDER DIVERSITY AT THE WORK PLACE 3 Days 05/10/2020 07/10/2020 $ 500, Ksh 40,000 View
50 AUDITING OF DONOR FUNDED PROJECTS 5 Days 05/10/2020 09/10/2020 $ 1,000, Ksh 80,000 View
51 HUMAN RESOURCES DEVELOPMENT AND PERSONNEL MANAGEME 5 Days 05/10/2020 09/10/2020 $ 1,000, Ksh 80,000 View
52 CASH FLOW FORECASTING AND LIQUIDITY RISK MANAGEMEN 5 Days 05/10/2020 09/10/2020 $ 1,000, Ksh 80,000 View
53 PROJECT FINANCIAL ANALYSIS AND MANAGEMENT 5 Days 05/10/2020 09/10/2020 $ 1,000, Ksh 80,000 View
54 CONCEPTS OF CORPORATE GOVERNANCE, BUSINESS ETHICS 5 Days 05/10/2020 09/10/2020 $ 1,000, Ksh 80,000 View
55 PROCUREMENT AND SUPPLY CHAIN MANAGEMENT 5 Days 05/10/2020 09/10/2020 $ 1,000, Ksh 80,000 View
56 RECORDS MANAGEMENT 10 Days 05/10/2020 16/10/2020 $ 2,000, Ksh 160,000 View
57 ADVANCED PURCHASING AND COST SAVING TECHNIQUES 5 Days 05/10/2020 09/10/2020 $ 1,000, Ksh 80,000 View
58 SHIPPING AND LOGISTICS 5 Days 05/10/2020 09/10/2020 $ 1,000, Ksh 80,000 View
59 CONTRACT MANAGEMENT IN OIL & GAS 5 Days 05/10/2020 09/10/2020 $ 1,000, Ksh 80,000 View
60 BEST PRACTICES IN MANAGING INVENTORY & STOCK CONTR 5 Days 05/10/2020 09/10/2020 $ 1,000, Ksh 80,000 View
61 EFFECTIVE WAREHOUSE & STORES MANAGEMENT 5 Days 05/10/2020 09/10/2020 $ 1,000, Ksh 80,000 View
62 PROFESSIONAL SKILLS ENHANCEMENT FOR ADMINISTRATORS 10 Days 05/10/2020 14/10/2020 $ 2,000, Ksh 160,000 View
63 ESSENTIAL INTERVIEWING SKILLS 3 Days 05/10/2020 07/10/2020 $ 500, Ksh 40,000 View
64 MICROSOFT EXCEL FOR HUMAN RESOURSE PROFESSIONAL 3 Days 05/10/2020 07/10/2020 $ 500, Ksh 40,000 View
65 LEADING FOR ORGANIZATIONAL IMPACT 5 Days 05/10/2020 09/10/2020 $ 1,000, Ksh 80,000 View
66 INTERPERSONAL SKILLS FOR THE HR PROFFESSIONAL 5 Days 05/10/2020 09/10/2020 $ 1,000, Ksh 80,000 View
67 BASIC HUMAN RESOURCE MANAGEMENT 5 Days 05/10/2020 09/10/2020 $ 1,000, Ksh 80,000 View
68 INTERNATIONAL FINANCIAL REPORTING STANDARDS 5 Days 05/10/2020 09/10/2020 $ 1,000, Ksh 80,000 View
69 FINANCIAL MARKETS AND INSTITUTIONS COURSE 5 Days 05/10/2020 09/10/2020 $ 1,000, Ksh 80,000 View
70 FINANCIAL SKILLS DEVELOPMENT 5 Days 05/10/2020 09/10/2020 $ 1,000, Ksh 80,000 View
71 INTERNATIONAL PUBLIC SECTOR ACCOUNTING STANDARD 5 Days 05/10/2020 09/10/2020 $ 1,000, Ksh 80,000 View
72 EFFECTIVE DATA ANALYSIS TECHNIQUES: FOR POSITIVE B 5 Days 05/10/2020 09/10/2020 $ 1,000, Ksh 80,000 View
73 FINANCIAL MANAGEMENT USING PASTEL 5 Days 05/10/2020 09/10/2020 $ 1,000, Ksh 80,000 View
74 FORENSIC ACCOUNTING IN THE PUBLIC SECTOR 5 Days 05/10/2020 09/10/2020 $ 1,000, Ksh 80,000 View
75 CORPORATE AND EMPLOYEE BEST PRACTICES 5 Days 05/10/2020 09/10/2020 $ 1,000, Ksh 80,000 View
76 ENTERPRISE RISK MANAGEMENT 5 Days 05/10/2020 09/10/2020 $ 1,000, Ksh 80,000 View
77 COMPETENCY BASED RECRUITMENT 3 Days 05/10/2020 07/10/2020 $ 5,000, Ksh 40,000 View
78 BASICS OF FINANCIAL MODELLING USING MS EXCEL 10 Days 05/10/2020 16/10/2020 $ 2,000, Ksh 160,000 View
79 CORPORATE AND EMPLOYEE BEST PRACTICES 5 Days 05/10/2020 09/10/2020 $ 1,000, Ksh 80,000 View
80 CUSTOMER EXPERIENCE MANAGEMENT STRATEGIES 5 Days 05/10/2020 09/10/2020 $ 1,000, Ksh 80,000 View
81 PERFORMANCE AUDITING 5 Days 05/10/2020 09/10/2020 $ 1,000, Ksh 80,000 View
82 GENDER DIVERSITY AT THE WORK PLACE 3 Days 05/10/2020 07/10/2020 $ 500, Ksh 40,000 View
83 PERSPECTIVES ON COST ACCOUNTING FOR PUBLIC SECTOR 5 Days 05/10/2020 09/10/2020 $ 1,000, Ksh 80,000 View
84 CUSTOMER RELATIONSHIP MANAGEMENT (CRM) BEST PRACTI 5 Days 05/10/2020 09/10/2020 $ 1,000, Ksh 80,000 View
85 THE ART OF HUMAN RESOURCE MANAGEMENT 5 Days 05/10/2020 09/10/2020 $ 1,000, Ksh 80,000 View
86 GRANT MANAGEMENT USING SUN ACCOUNTING SYSTEM 10 Days 05/10/2020 16/10/2020 $ 2,000, Ksh 160,000 View
87 PREPARATION AND INTERPRETATION OF FINANCIAL STATEM 5 Days 05/10/2020 09/10/2020 $ 1,000, Ksh 80,000 View
88 CUSTOMER ACQUISITION & RETENTION STRATEGIES 5 Days 05/10/2020 09/10/2020 $ 1,000, Ksh 80,000 View
89 BUDGET EXECUTION AND MANAGING FISCAL SPACE 5 Days 05/10/2020 09/10/2020 $ 1,000, Ksh 80,000 View
90 CORPORATE AND EMPLOYEE BEST PRACTICES 5 Days 05/10/2020 09/10/2020 $ 1,000, Ksh 80,000 View
91 STRATEGIC VISION AND BUSINESS RISK MANAGEMENT STAT 10 Days 05/10/2020 16/10/2020 $ 2,000, Ksh 160,000 View
92 ADVANCED FINANCIAL MANAGEMENT 5 Days 05/10/2020 09/10/2020 $ 1,000, Ksh 80,000 View
93 EMPLOYEE RELATIONS 3 Days 02/11/2020 04/11/2020 $ 500, Ksh 40,000 View
94 ASSET MANAGEMENT 5 Days 02/11/2020 06/11/2020 $ 1,000, Ksh 80,000 View
95 GENDER DIVERSITY AT THE WORK PLACE 3 Days 02/11/2020 04/11/2020 $ 500, Ksh 40,000 View
96 AUDITING OF DONOR FUNDED PROJECTS 5 Days 02/11/2020 06/11/2020 $ 1,000, Ksh 80,000 View
97 HUMAN RESOURCES DEVELOPMENT AND PERSONNEL MANAGEME 5 Days 02/11/2020 06/11/2020 $ 1,000, Ksh 80,000 View
98 CASH FLOW FORECASTING AND LIQUIDITY RISK MANAGEMEN 5 Days 02/11/2020 06/11/2020 $ 1,000, Ksh 80,000 View
99 PROJECT FINANCIAL ANALYSIS AND MANAGEMENT 5 Days 02/11/2020 06/11/2020 $ 1,000, Ksh 80,000 View
100 CONCEPTS OF CORPORATE GOVERNANCE, BUSINESS ETHICS 5 Days 02/11/2020 06/11/2020 $ 1,000, Ksh 80,000 View
101 PROCUREMENT AND SUPPLY CHAIN MANAGEMENT 5 Days 02/11/2020 06/11/2020 $ 1,000, Ksh 80,000 View
102 RECORDS MANAGEMENT 10 Days 02/11/2020 13/11/2020 $ 2,000, Ksh 160,000 View
103 ADVANCED PURCHASING AND COST SAVING TECHNIQUES 5 Days 02/11/2020 06/11/2020 $ 1,000, Ksh 80,000 View
104 SHIPPING AND LOGISTICS 5 Days 02/11/2020 06/11/2020 $ 1,000, Ksh 80,000 View
105 CONTRACT MANAGEMENT IN OIL & GAS 5 Days 02/11/2020 06/11/2020 $ 1,000, Ksh 80,000 View
106 BEST PRACTICES IN MANAGING INVENTORY & STOCK CONTR 5 Days 02/11/2020 06/11/2020 $ 1,000, Ksh 80,000 View
107 EFFECTIVE WAREHOUSE & STORES MANAGEMENT 5 Days 02/11/2020 06/11/2020 $ 1,000, Ksh 80,000 View
108 PROFESSIONAL SKILLS ENHANCEMENT FOR ADMINISTRATORS 10 Days 02/11/2020 11/11/2020 $ 2,000, Ksh 160,000 View
109 ESSENTIAL INTERVIEWING SKILLS 3 Days 02/11/2020 04/11/2020 $ 500, Ksh 40,000 View
110 MICROSOFT EXCEL FOR HUMAN RESOURSE PROFESSIONAL 3 Days 02/11/2020 04/11/2020 $ 500, Ksh 40,000 View
111 LEADING FOR ORGANIZATIONAL IMPACT 5 Days 02/11/2020 06/11/2020 $ 1,000, Ksh 80,000 View
112 INTERPERSONAL SKILLS FOR THE HR PROFFESSIONAL 5 Days 02/11/2020 06/11/2020 $ 1,000, Ksh 80,000 View
113 BASIC HUMAN RESOURCE MANAGEMENT 5 Days 02/11/2020 06/11/2020 $ 1,000, Ksh 80,000 View
114 INTERNATIONAL FINANCIAL REPORTING STANDARDS 5 Days 02/11/2020 06/11/2020 $ 1,000, Ksh 80,000 View
115 FINANCIAL MARKETS AND INSTITUTIONS COURSE 5 Days 02/11/2020 06/11/2020 $ 1,000, Ksh 80,000 View
116 FINANCIAL SKILLS DEVELOPMENT 5 Days 02/11/2020 06/11/2020 $ 1,000, Ksh 80,000 View
117 INTERNATIONAL PUBLIC SECTOR ACCOUNTING STANDARD 5 Days 02/11/2020 06/11/2020 $ 1,000, Ksh 80,000 View
118 FINANCIAL MANAGEMENT USING PASTEL 5 Days 02/11/2020 06/11/2020 $ 1,000, Ksh 80,000 View
119 FORENSIC ACCOUNTING IN THE PUBLIC SECTOR 5 Days 02/11/2020 06/11/2020 $ 1,000, Ksh 80,000 View
120 ENTERPRISE RISK MANAGEMENT 5 Days 02/11/2020 06/11/2020 $ 1,000, Ksh 80,000 View
121 COMPETENCY BASED RECRUITMENT 3 Days 02/11/2020 04/11/2020 $ 5,000, Ksh 40,000 View
122 BASICS OF FINANCIAL MODELLING USING MS EXCEL 10 Days 02/11/2020 13/11/2020 $ 2,000, Ksh 160,000 View
123 CORPORATE AND EMPLOYEE BEST PRACTICES 5 Days 02/11/2020 06/11/2020 $ 1,000, Ksh 80,000 View
124 CUSTOMER EXPERIENCE MANAGEMENT STRATEGIES 5 Days 02/11/2020 06/11/2020 $ 1,000, Ksh 80,000 View
125 PERFORMANCE AUDITING 5 Days 02/11/2020 06/11/2020 $ 1,000, Ksh 80,000 View
126 GENDER DIVERSITY AT THE WORK PLACE 3 Days 02/11/2020 04/11/2020 $ 500, Ksh 40,000 View
127 PERSPECTIVES ON COST ACCOUNTING FOR PUBLIC SECTOR 5 Days 02/11/2020 06/11/2020 $ 1,000, Ksh 80,000 View
128 CUSTOMER RELATIONSHIP MANAGEMENT (CRM) BEST PRACTI 5 Days 02/11/2020 06/11/2020 $ 1,000, Ksh 80,000 View
129 GRANT MANAGEMENT USING SUN ACCOUNTING SYSTEM 10 Days 02/11/2020 13/11/2020 $ 2,000, Ksh 160,000 View
130 THE ART OF HUMAN RESOURCE MANAGEMENT 5 Days 02/11/2020 06/11/2020 $ 1,000, Ksh 80,000 View
131 PREPARATION AND INTERPRETATION OF FINANCIAL STATEM 5 Days 02/11/2020 06/11/2020 $ 1,000, Ksh 80,000 View
132 CUSTOMER ACQUISITION & RETENTION STRATEGIES 5 Days 02/11/2020 06/11/2020 $ 1,000, Ksh 80,000 View
133 BUDGET EXECUTION AND MANAGING FISCAL SPACE 5 Days 02/11/2020 06/11/2020 $ 1,000, Ksh 80,000 View
134 CORPORATE AND EMPLOYEE BEST PRACTICES 5 Days 02/11/2020 06/11/2020 $ 1,000, Ksh 80,000 View
135 STRATEGIC VISION AND BUSINESS RISK MANAGEMENT STAT 10 Days 02/11/2020 13/11/2020 $ 2,000, Ksh 160,000 View
136 ADVANCED FINANCIAL MANAGEMENT 5 Days 02/11/2020 06/11/2020 $ 1,000, Ksh 80,000 View
137 EFFECTIVE DATA ANALYSIS TECHNIQUES: FOR POSITIVE B 5 Days 09/11/2020 13/11/2020 $ 1,000, Ksh 80,000 View
138 CORPORATE AND EMPLOYEE BEST PRACTICES 5 Days 09/11/2020 13/11/2020 $ 1,000, Ksh 80,000 View
139 ADVANCED FINANCIAL MANAGEMENT 5 Days 07/12/2020 11/12/2020 $ 1,000, Ksh 80,000 View
140 EMPLOYEE RELATIONS 3 Days 07/12/2020 09/12/2020 $ 500, Ksh 40,000 View
141 ASSET MANAGEMENT 5 Days 07/12/2020 11/12/2020 $ 1,000, Ksh 80,000 View
142 GENDER DIVERSITY AT THE WORK PLACE 3 Days 07/12/2020 09/12/2020 $ 500, Ksh 40,000 View
143 AUDITING OF DONOR FUNDED PROJECTS 5 Days 07/12/2020 11/12/2020 $ 1,000, Ksh 80,000 View
144 HUMAN RESOURCES DEVELOPMENT AND PERSONNEL MANAGEME 5 Days 07/12/2020 11/12/2020 $ 1,000, Ksh 80,000 View
145 CASH FLOW FORECASTING AND LIQUIDITY RISK MANAGEMEN 5 Days 07/12/2020 11/12/2020 $ 1,000, Ksh 80,000 View
146 PROJECT FINANCIAL ANALYSIS AND MANAGEMENT 5 Days 07/12/2020 11/12/2020 $ 1,000, Ksh 80,000 View
147 CONCEPTS OF CORPORATE GOVERNANCE, BUSINESS ETHICS 5 Days 07/12/2020 11/12/2020 $ 1,000, Ksh 80,000 View
148 PROCUREMENT AND SUPPLY CHAIN MANAGEMENT 5 Days 07/12/2020 11/12/2020 $ 1,000, Ksh 80,000 View
149 RECORDS MANAGEMENT 10 Days 07/12/2020 18/12/2020 $ 2,000, Ksh 160,000 View
150 ADVANCED PURCHASING AND COST SAVING TECHNIQUES 5 Days 07/12/2020 11/12/2020 $ 1,000, Ksh 80,000 View
151 SHIPPING AND LOGISTICS 5 Days 07/12/2020 11/12/2020 $ 1,000, Ksh 80,000 View
152 CONTRACT MANAGEMENT IN OIL & GAS 5 Days 07/12/2020 11/12/2020 $ 1,000, Ksh 80,000 View
153 BEST PRACTICES IN MANAGING INVENTORY & STOCK CONTR 5 Days 07/12/2020 11/12/2020 $ 1,000, Ksh 80,000 View
154 EFFECTIVE WAREHOUSE & STORES MANAGEMENT 5 Days 07/12/2020 11/12/2020 $ 1,000, Ksh 80,000 View
155 ESSENTIAL INTERVIEWING SKILLS 3 Days 07/12/2020 09/12/2020 $ 500, Ksh 40,000 View
156 MICROSOFT EXCEL FOR HUMAN RESOURSE PROFESSIONAL 3 Days 07/12/2020 09/12/2020 $ 500, Ksh 40,000 View
157 LEADING FOR ORGANIZATIONAL IMPACT 5 Days 07/12/2020 11/12/2020 $ 1,000, Ksh 80,000 View
158 INTERPERSONAL SKILLS FOR THE HR PROFFESSIONAL 5 Days 07/12/2020 11/12/2020 $ 1,000, Ksh 80,000 View
159 BASIC HUMAN RESOURCE MANAGEMENT 5 Days 07/12/2020 11/12/2020 $ 1,000, Ksh 80,000 View
160 INTERNATIONAL FINANCIAL REPORTING STANDARDS 5 Days 07/12/2020 11/12/2020 $ 1,000, Ksh 80,000 View
161 FINANCIAL MARKETS AND INSTITUTIONS COURSE 5 Days 07/12/2020 11/12/2020 $ 1,000, Ksh 80,000 View
162 FINANCIAL SKILLS DEVELOPMENT 5 Days 07/12/2020 11/12/2020 $ 1,000, Ksh 80,000 View
163 INTERNATIONAL PUBLIC SECTOR ACCOUNTING STANDARD 5 Days 07/12/2020 11/12/2020 $ 1,000, Ksh 80,000 View
164 EFFECTIVE DATA ANALYSIS TECHNIQUES: FOR POSITIVE B 5 Days 07/12/2020 11/12/2020 $ 1,000, Ksh 80,000 View
165 FINANCIAL MANAGEMENT USING PASTEL 5 Days 07/12/2020 11/12/2020 $ 1,000, Ksh 80,000 View
166 FORENSIC ACCOUNTING IN THE PUBLIC SECTOR 5 Days 07/12/2020 11/12/2020 $ 1,000, Ksh 80,000 View
167 CORPORATE AND EMPLOYEE BEST PRACTICES 5 Days 07/12/2020 11/12/2020 $ 1,000, Ksh 80,000 View
168 ENTERPRISE RISK MANAGEMENT 5 Days 07/12/2020 11/12/2020 $ 1,000, Ksh 80,000 View
169 COMPETENCY BASED RECRUITMENT 3 Days 07/12/2020 09/12/2020 $ 5,000, Ksh 40,000 View
170 BASICS OF FINANCIAL MODELLING USING MS EXCEL 10 Days 07/12/2020 18/12/2020 $ 2,000, Ksh 160,000 View
171 CORPORATE AND EMPLOYEE BEST PRACTICES 5 Days 07/12/2020 11/12/2020 $ 1,000, Ksh 80,000 View
172 CUSTOMER EXPERIENCE MANAGEMENT STRATEGIES 5 Days 07/12/2020 11/12/2020 $ 1,000, Ksh 80,000 View
173 PERFORMANCE AUDITING 5 Days 07/12/2020 11/12/2020 $ 1,000, Ksh 80,000 View
174 GENDER DIVERSITY AT THE WORK PLACE 3 Days 07/12/2020 09/12/2020 $ 500, Ksh 40,000 View
175 PERSPECTIVES ON COST ACCOUNTING FOR PUBLIC SECTOR 5 Days 07/12/2020 11/12/2020 $ 1,000, Ksh 80,000 View
176 CUSTOMER RELATIONSHIP MANAGEMENT (CRM) BEST PRACTI 5 Days 07/12/2020 11/12/2020 $ 1,000, Ksh 80,000 View
177 GRANT MANAGEMENT USING SUN ACCOUNTING SYSTEM 10 Days 07/12/2020 18/12/2020 $ 2,000, Ksh 160,000 View
178 THE ART OF HUMAN RESOURCE MANAGEMENT 5 Days 07/12/2020 11/12/2020 $ 1,000, Ksh 80,000 View
179 PREPARATION AND INTERPRETATION OF FINANCIAL STATEM 5 Days 07/12/2020 11/12/2020 $ 1,000, Ksh 80,000 View
180 CUSTOMER ACQUISITION & RETENTION STRATEGIES 5 Days 07/12/2020 11/12/2020 $ 1,000, Ksh 80,000 View
181 BUDGET EXECUTION AND MANAGING FISCAL SPACE 5 Days 07/12/2020 11/12/2020 $ 1,000, Ksh 80,000 View
182 CORPORATE AND EMPLOYEE BEST PRACTICES 5 Days 07/12/2020 11/12/2020 $ 1,000, Ksh 80,000 View
183 STRATEGIC VISION AND BUSINESS RISK MANAGEMENT STAT 10 Days 07/12/2020 18/12/2020 $ 2,000, Ksh 160,000 View

Contact Details

Anniversary Towers 8th Flr, Nairobi
+254 715 310 685 | +254 732 543 623
info@afriextraining.org

Connect With Us

     

Afriex Training

We engage in empowering individuals, organizations, and societies through quality trainings.